Temp
68 72 76 77 78 78 78 77 77 77 77 77 77 77 77 76 76 76 77 77 77 78 78 78 77 76 75 74 73 74 73 73 73 74 77 77 78 78 77 76 75 75 77
71 73 74 77 77 77 77 77 76 76 77 77 77 77 77 77 76 76 76 76 77 77 77 77 75 75 74 73 72 73 73 73 72 73 74 76 76 77 77 76 75 76 77
72 74 74 75 77 77 76 76 76 76 77 77 77 77 77 76 76 76 76 76 76 77 76 75 74 73 72 72 72 72 72 72 72 72 72 71 73 77 77 76 76 77 76
73 73 74 74 76 76 76 76 76 76 77 77 77 77 77 76 76 77 76 75 76 75 75 74 73 72 72 71 71 71 71 71 72 71 70 72 76 77 77 76 76 76 76
71 73 74 73 75 76 76 76 76 76 76 77 77 77 77 76 76 75 75 75 75 75 74 74 73 72 71 71 70 70 70 71 71 70 68 68 70 76 76 76 75 74 74
70 73 72 73 75 75 75 76 76 76 76 77 77 77 77 77 76 76 75 75 74 74 74 73 72 71 70 70 69 69 70 70 69 64 65 68 69 76 76 74 74 73 73
70 71 71 73 74 75 75 75 75 75 76 76 76 76 76 76 76 75 75 75 73 73 73 73 71 70 69 69 68 68 68 68 63 61 62 63 67 74 75 73 73 73 73
70 69 71 70 71 73 74 74 74 75 75 75 76 76 76 75 75 74 73 73 74 73 72 71 70 69 68 67 67 67 67 66 64 60 60 61 70 72 72 72 72 72 73
70 68 69 70 70 69 71 71 72 73 74 74 74 75 74 74 74 73 72 73 73 72 72 70 69 68 67 66 65 65 65 65 59 59 63 60 70 72 72 71 72 72 72
68 67 67 68 69 68 72 68 69 70 71 72 71 70 69 70 70 70 69 70 72 71 71 69 68 68 67 65 64 63 63 64 57 57 56 59 69 71 71 70 71 71 71
66 66 65 66 67 68 67 68 66 67 68 68 68 67 65 65 65 65 64 68 70 70 70 69 68 67 65 63 63 62 61 55 55 54 55 64 67 70 70 70 70 70 71
62 64 65 64 66 66 70 68 66 67 67 67 66 67 67 63 62 63 62 65 67 67 69 68 67 64 59 52 52 58 53 54 53 52 53 63 67 69 69 69 70 70 70
63 63 64 65 64 65 68 65 66 67 65 65 68 67 66 66 63 59 57 58 58 60 58 61 58 53 52 51 51 51 53 52 50 50 56 61 64 68 69 69 69 69 69
64 65 64 65 64 64 66 64 65 66 64 63 66 67 66 65 61 56 55 54 54 53 53 51 50 50 50 52 52 52 52 50 48 49 52 59 63 66 69 69 69 69 70
64 65 63 63 66 66 63 62 62 64 64 65 62 64 66 66 62 55 54 54 53 52 51 49 49 49 50 52 52 52 51 51 51 49 48 57 61 65 69 69 69 69 70
62 63 64 63 66 64 64 62 61 61 62 61 62 62 62 62 62 58 54 54 53 52 50 49 48 47 48 49 50 51 50 50 51 50 49 51 60 63 67 68 69 69 70
57 59 60 63 62 62 62 61 61 61 61 60 61 62 62 60 59 56 54 53 54 52 50 48 48 47 46 48 48 49 49 49 50 50 49 49 51 58 62 65 67 69 70
54 55 57 61 61 61 60 60 61 60 60 60 60 60 62 61 60 55 53 52 51 50 49 48 46 45 45 45 44 45 46 47 48 49 49 49 49 50 54 59 62 68 68
52 53 54 56 56 59 60 59 59 60 59 59 59 58 61 60 59 59 53 51 51 49 47 49 44 45 42 43 44 43 44 44 46 50 48 48 48 47 47 55 57 58 62
51 52 53 55 55 55 55 55 55 56 56 57 57 58 61 60 58 57 53 51 49 47 46 45 45 43 43 43 49 45 42 43 43 43 45 48 46 47 46 47 46 49 59
49 49 50 51 52 53 51 51 52 52 53 54 58 60 60 59 58 55 53 51 48 48 47 46 44 44 42 41 41 40 40 42 43 42 42 43 44 46 45 45 44 45 48
47 47 48 49 50 51 51 50 50 49 49 51 55 57 59 58 57 55 53 51 47 45 45 44 44 41 42 42 40 36 36 39 40 42 41 42 42 43 44 45 44 45 45
44 44 47 48 48 48 49 51 49 49 48 48 49 53 54 56 56 54 53 51 49 49 46 46 44 44 41 40 40 41 33 36 35 38 39 40 40 39 40 42 44 45 44
43 44 45 46 47 48 47 46 44 43 42 44 45 46 48 50 52 54 53 52 49 48 47 43 45 44 41 39 39 44 40 38 35 34 37 38 39 40 39 39 41 43 43
42 41 42 45 45 45 45 44 43 41 42 42 44 44 45 46 47 48 48 51 49 47 46 45 45 41 41 41 41 37 37 37 37 34 32 33 36 37 39 39 39 39 42
41 40 41 42 43 44 43 43 42 40 40 40 40 40 41 43 43 44 45 44 46 47 46 45 45 45 45 41 40 38 38 39 36 36 32 30 32 34 36 37 38 39 38
MSLP
1015.90 1015.76 1016.03 1016.23 1016.57 1016.84 1017.02 1017.26 1017.59 1017.86 1018.09 1018.31 1018.50 1018.74 1018.89 1019.02 1019.17 1019.19 1019.29 1019.30 1019.42 1019.54 1019.63 1019.71 1019.87 1020.04 1020.29 1020.46 1020.43 1020.47 1020.44 1020.31 1020.14 1020.06 1019.85 1019.88 1019.91 1019.92 1020.02 1019.99 1019.98 1019.96 1019.80
1015.05 1015.52 1015.91 1016.20 1016.41 1016.74 1017.19 1017.37 1017.59 1017.89 1018.11 1018.37 1018.55 1018.70 1018.85 1019.12 1019.26 1019.33 1019.38 1019.42 1019.53 1019.71 1019.91 1019.99 1020.25 1020.41 1020.63 1020.73 1020.70 1020.65 1020.66 1020.51 1020.45 1020.45 1020.25 1020.08 1020.10 1020.23 1020.31 1020.37 1020.34 1020.29 1020.14
1014.98 1015.36 1015.66 1016.06 1016.35 1016.62 1017.00 1017.39 1017.72 1017.95 1018.10 1018.28 1018.48 1018.73 1018.94 1019.18 1019.32 1019.43 1019.52 1019.55 1019.65 1019.87 1020.01 1020.21 1020.38 1020.66 1020.79 1020.94 1021.00 1020.90 1020.85 1020.73 1020.71 1020.74 1020.51 1020.51 1020.21 1020.27 1020.36 1020.56 1020.56 1020.53 1020.53
1014.77 1015.20 1015.51 1015.79 1016.18 1016.58 1016.94 1017.26 1017.56 1017.87 1018.17 1018.37 1018.54 1018.70 1018.86 1019.12 1019.30 1019.46 1019.62 1019.76 1019.92 1020.10 1020.26 1020.37 1020.55 1020.72 1020.86 1020.92 1020.88 1020.98 1020.90 1020.94 1020.88 1020.70 1020.67 1020.59 1020.32 1020.46 1020.56 1020.59 1020.75 1020.80 1020.78
1014.81 1015.10 1015.52 1015.98 1016.22 1016.42 1016.75 1017.11 1017.46 1017.79 1018.09 1018.30 1018.54 1018.81 1019.03 1019.19 1019.35 1019.53 1019.69 1019.92 1020.15 1020.36 1020.45 1020.61 1020.77 1020.88 1021.04 1021.03 1020.98 1021.06 1021.00 1021.13 1020.92 1020.87 1020.78 1020.74 1020.88 1020.74 1020.72 1020.79 1021.00 1021.06 1021.05
1014.80 1015.05 1015.43 1015.91 1016.30 1016.60 1016.76 1016.95 1017.23 1017.57 1017.86 1018.12 1018.40 1018.71 1019.00 1019.26 1019.49 1019.69 1019.94 1020.01 1020.29 1020.51 1020.58 1020.82 1020.92 1021.06 1021.22 1021.23 1021.15 1021.14 1021.06 1021.13 1020.94 1021.18 1021.20 1021.13 1021.15 1020.99 1020.97 1021.21 1021.09 1021.18 1021.18
1014.71 1014.83 1015.26 1015.69 1016.05 1016.41 1016.75 1017.09 1017.41 1017.67 1017.80 1017.95 1018.22 1018.54 1018.84 1019.15 1019.42 1019.85 1020.01 1020.27 1020.48 1020.71 1020.85 1020.95 1021.15 1021.33 1021.35 1021.41 1021.41 1021.22 1021.16 1021.21 1021.33 1021.44 1021.53 1021.63 1021.42 1021.23 1021.32 1021.57 1021.48 1021.45 1021.37
1014.54 1014.75 1014.97 1015.29 1015.67 1016.03 1016.39 1016.79 1017.16 1017.57 1017.87 1018.06 1018.18 1018.41 1018.70 1019.00 1019.33 1019.81 1020.24 1020.30 1020.39 1020.74 1020.94 1021.15 1021.25 1021.40 1021.66 1021.61 1021.70 1021.42 1021.44 1021.37 1021.63 1021.74 1021.79 1021.94 1021.73 1021.54 1021.75 1021.77 1021.73 1021.60 1021.61
1014.24 1014.57 1014.90 1015.19 1015.58 1015.97 1016.33 1016.63 1016.95 1017.29 1017.62 1017.92 1018.15 1018.36 1018.69 1018.98 1019.26 1019.62 1020.07 1020.32 1020.49 1020.75 1021.02 1021.26 1021.40 1021.45 1021.70 1021.84 1021.73 1021.72 1021.71 1021.75 1022.06 1021.96 1021.98 1022.20 1022.02 1021.84 1021.72 1021.82 1021.74 1021.67 1021.74
1014.44 1014.48 1014.78 1015.25 1015.58 1015.81 1015.91 1016.30 1016.63 1016.91 1017.25 1017.58 1017.89 1018.14 1018.53 1018.98 1019.28 1019.63 1020.13 1020.44 1020.62 1020.87 1021.01 1021.27 1021.50 1021.76 1021.77 1021.94 1021.99 1022.01 1022.17 1022.01 1022.33 1022.59 1022.55 1022.51 1022.24 1022.01 1021.92 1022.11 1021.86 1021.78 1021.92
1014.56 1014.68 1014.71 1014.88 1015.21 1015.55 1015.92 1016.10 1016.38 1016.59 1016.86 1017.22 1017.57 1017.93 1018.32 1018.81 1019.16 1019.46 1019.95 1020.42 1020.66 1020.94 1021.10 1021.39 1021.62 1021.71 1021.85 1022.04 1022.17 1022.25 1022.42 1022.33 1022.55 1022.78 1022.73 1022.59 1022.35 1022.31 1022.13 1022.13 1022.01 1021.85 1022.03
1014.47 1014.54 1014.69 1014.79 1014.97 1015.24 1015.54 1015.94 1016.34 1016.66 1016.86 1017.06 1017.42 1017.84 1018.20 1018.67 1019.04 1019.36 1019.74 1020.17 1020.49 1020.77 1020.99 1021.25 1021.43 1021.79 1022.11 1022.43 1022.46 1022.45 1022.39 1022.39 1022.96 1023.06 1022.87 1022.71 1022.44 1022.32 1022.26 1022.25 1022.10 1021.92 1021.96
1013.63 1013.75 1013.98 1014.29 1014.51 1014.87 1015.03 1015.45 1015.91 1016.23 1016.58 1016.86 1017.13 1017.55 1018.00 1018.43 1018.86 1019.24 1019.60 1019.95 1020.37 1020.60 1020.99 1021.25 1021.57 1021.99 1022.21 1022.46 1022.62 1022.66 1022.70 1022.82 1022.95 1023.08 1022.90 1022.90 1022.67 1022.45 1022.18 1022.23 1022.10 1022.03 1022.09
1013.08 1013.02 1013.15 1013.47 1014.01 1014.36 1014.72 1015.16 1015.46 1015.83 1016.24 1016.59 1016.71 1017.25 1017.74 1018.18 1018.68 1019.33 1019.71 1020.02 1020.33 1020.66 1021.10 1021.55 1021.98 1022.26 1022.49 1022.60 1022.69 1022.77 1022.86 1023.01 1023.03 1023.01 1022.86 1022.75 1022.48 1022.38 1022.17 1022.26 1022.10 1021.99 1021.98
1012.71 1012.40 1012.47 1012.87 1013.26 1013.50 1014.19 1014.69 1015.19 1015.46 1015.86 1016.18 1016.70 1016.85 1017.18 1017.72 1018.17 1018.95 1019.43 1019.80 1020.20 1020.59 1020.89 1021.44 1021.75 1022.12 1022.38 1022.47 1022.68 1022.82 1022.90 1022.83 1022.79 1022.86 1022.91 1022.71 1022.63 1022.40 1022.14 1022.07 1021.98 1021.93 1021.93
1014.01 1013.36 1012.54 1012.49 1012.74 1012.99 1013.69 1014.18 1014.70 1015.22 1015.51 1015.92 1016.30 1016.66 1017.12 1017.40 1017.85 1018.59 1019.08 1019.48 1019.98 1020.34 1020.74 1021.14 1021.61 1022.03 1022.32 1022.45 1022.46 1022.54 1022.70 1022.82 1022.86 1023.00 1023.11 1023.10 1022.89 1022.52 1022.13 1021.97 1021.80 1021.80 1021.94
1015.21 1014.47 1013.92 1013.31 1012.84 1013.16 1013.37 1013.71 1014.19 1014.78 1015.23 1015.68 1015.98 1016.33 1016.65 1017.02 1017.64 1018.50 1019.01 1019.25 1019.32 1019.72 1020.36 1021.08 1021.51 1021.85 1022.27 1022.42 1022.54 1022.59 1022.63 1022.68 1022.84 1023.02 1023.22 1023.26 1023.12 1022.85 1022.59 1022.21 1021.98 1021.87 1021.75
1016.00 1015.26 1014.52 1013.98 1013.62 1013.27 1013.42 1013.63 1013.87 1014.27 1014.77 1015.21 1015.65 1015.94 1016.20 1016.72 1017.18 1018.01 1018.72 1019.21 1019.53 1020.06 1020.36 1020.71 1021.24 1021.81 1022.10 1022.37 1022.63 1022.85 1022.93 1022.90 1022.85 1022.78 1022.92 1023.07 1023.16 1023.09 1023.03 1022.88 1022.45 1021.75 1021.84
1017.04 1016.47 1015.60 1014.85 1014.55 1014.28 1014.24 1014.17 1014.20 1014.31 1014.61 1015.00 1015.33 1015.63 1015.91 1016.41 1016.98 1017.44 1018.23 1018.89 1019.35 1019.89 1020.35 1020.86 1021.47 1021.61 1022.15 1022.41 1022.62 1022.86 1022.96 1023.06 1022.94 1022.82 1022.95 1023.00 1022.95 1022.98 1023.08 1022.95 1022.95 1022.78 1022.48
1018.02 1017.34 1016.66 1016.05 1015.34 1015.02 1014.92 1015.02 1015.19 1015.19 1015.20 1015.13 1015.37 1015.64 1015.73 1016.14 1016.69 1017.21 1017.94 1018.52 1019.02 1019.77 1020.46 1020.91 1021.31 1021.82 1022.06 1022.37 1022.60 1022.94 1023.05 1022.95 1022.91 1022.91 1022.81 1022.92 1023.01 1023.01 1022.99 1022.95 1022.97 1022.98 1022.78
1018.62 1018.30 1017.97 1017.25 1016.87 1016.07 1015.85 1016.11 1016.12 1016.41 1016.24 1016.19 1015.74 1015.63 1015.99 1016.31 1016.68 1017.30 1017.73 1018.07 1018.68 1019.28 1019.84 1020.51 1021.15 1021.73 1022.23 1022.49 1023.26 1023.50 1023.25 1023.00 1022.79 1022.71 1022.69 1022.65 1022.62 1022.78 1023.00 1023.02 1023.03 1022.92 1022.81
1019.91 1019.47 1019.13 1018.81 1018.17 1017.62 1017.18 1017.13 1017.00 1017.06 1017.13 1017.23 1016.82 1016.65 1016.54 1016.63 1016.91 1017.20 1017.67 1018.14 1018.58 1019.22 1019.69 1020.07 1020.61 1021.49 1021.85 1022.14 1022.73 1023.53 1023.60 1023.33 1022.80 1022.67 1022.67 1022.68 1022.60 1022.56 1022.62 1022.68 1022.86 1022.94 1022.90
1020.79 1020.59 1020.18 1019.85 1019.47 1019.05 1018.34 1017.90 1017.87 1017.60 1017.74 1017.85 1017.81 1017.62 1017.43 1017.28 1017.09 1017.41 1017.71 1018.13 1018.57 1018.84 1019.29 1019.72 1020.02 1020.47 1021.39 1021.70 1021.47 1021.69 1022.94 1022.75 1022.63 1022.50 1022.55 1022.62 1022.63 1022.57 1022.52 1022.47 1022.39 1022.40 1022.55
1022.15 1021.68 1021.27 1020.91 1020.47 1020.19 1019.78 1019.31 1019.20 1019.62 1019.78 1019.77 1019.28 1018.90 1018.61 1018.16 1017.93 1017.90 1018.02 1018.18 1018.43 1018.87 1019.21 1019.30 1019.60 1020.08 1020.58 1021.24 1021.55 1021.01 1021.10 1021.38 1022.12 1022.74 1022.34 1022.24 1022.39 1022.50 1022.33 1022.35 1022.26 1022.04 1021.99
1022.60 1022.70 1022.35 1022.01 1021.57 1021.30 1021.02 1020.90 1020.67 1020.47 1020.59 1020.37 1020.19 1020.01 1019.74 1019.25 1018.91 1018.69 1018.58 1018.40 1018.56 1018.77 1019.09 1019.25 1019.55 1019.82 1020.00 1020.39 1020.64 1020.79 1020.97 1021.15 1021.37 1021.82 1022.33 1022.14 1022.29 1021.74 1021.82 1021.83 1021.88 1021.85 1021.84
1023.33 1023.16 1022.90 1022.59 1022.52 1022.24 1022.10 1022.18 1021.97 1021.66 1021.67 1021.46 1021.10 1020.91 1020.90 1020.75 1020.22 1019.89 1019.67 1019.40 1018.83 1018.45 1018.82 1019.00 1019.26 1019.42 1019.54 1019.68 1019.67 1020.07 1020.28 1020.42 1020.91 1021.05 1021.56 1021.63 1021.39 1021.36 1021.31 1021.47 1021.55 1021.57 1021.68
Wind_Speed
5 12 18 18 17 15 15 14 13 12 12 13 12 12 11 9 7 7 7 7 10 12 12 11 10 11 11 10 10 9 9 8 8 10 12 12 12 13 14 11 11 7 12
10 14 17 18 18 16 14 14 13 12 12 12 12 12 11 9 7 5 5 8 11 11 11 10 9 10 10 9 8 8 7 7 7 7 6 9 11 11 12 11 9 8 11
13 13 15 16 17 16 15 14 12 12 13 13 12 10 10 9 8 6 4 10 12 10 10 9 9 9 8 7 8 8 7 6 6 6 6 3 5 11 11 9 9 10 10
10 12 13 16 17 15 15 15 14 13 12 12 12 12 13 12 9 8 10 12 11 10 8 8 9 8 7 7 7 7 7 7 8 9 5 3 5 11 8 11 9 8 10
8 11 10 13 16 16 17 16 15 14 13 13 13 12 11 12 10 10 12 11 10 8 8 8 8 8 6 6 6 5 5 6 8 7 6 6 4 8 12 7 8 8 7
9 10 12 14 15 14 14 15 16 15 14 15 15 13 12 12 12 8 8 9 9 7 7 7 8 7 7 6 6 6 7 7 6 7 6 7 5 8 10 9 9 7 6
8 8 13 16 15 16 15 14 14 14 13 13 14 14 14 13 10 7 8 7 7 6 6 7 7 6 6 6 5 6 7 7 5 6 6 5 5 8 7 5 4 6 7
8 8 11 16 16 15 16 16 15 14 13 11 12 14 15 14 13 12 9 9 9 8 7 8 7 7 6 6 5 6 7 7 6 6 6 5 6 6 4 2 3 4 5
7 8 8 10 11 13 13 15 14 14 13 12 12 13 14 13 13 12 9 8 9 9 9 8 8 7 6 5 5 6 8 8 7 4 6 4 4 4 4 3 2 3 3
6 7 8 7 8 8 10 11 14 14 14 13 11 10 11 11 11 11 8 7 10 9 9 9 8 8 7 6 4 5 7 8 7 5 4 3 4 3 3 2 3 2 1
3 6 7 8 8 8 6 7 10 11 12 12 10 13 10 5 7 9 9 8 9 9 10 9 9 8 7 5 2 4 5 3 5 3 3 5 2 1 2 2 2 3 1
7 7 8 7 9 8 8 7 6 6 5 6 6 8 6 6 6 7 9 11 9 9 10 11 9 9 6 2 0 2 2 4 3 3 2 3 1 1 2 1 2 4 4
9 5 9 9 8 9 9 6 5 5 4 4 9 8 6 6 5 4 4 4 4 7 4 6 5 3 5 3 1 2 2 3 3 3 3 3 2 0 2 3 3 3 3
9 12 10 10 9 9 6 5 6 6 5 4 6 9 7 5 5 4 3 4 4 4 5 5 3 3 2 3 4 4 3 3 3 3 3 4 3 1 2 3 3 4 4
8 8 11 10 11 10 8 5 5 7 6 7 5 7 8 7 6 5 5 5 5 5 5 5 5 4 4 4 3 4 3 3 4 2 1 4 3 1 5 5 5 5 4
13 10 4 10 11 8 8 7 5 4 5 5 5 6 6 5 5 7 6 6 5 5 4 5 5 5 4 4 4 4 3 2 3 3 2 1 4 4 3 4 4 5 5
11 13 16 6 7 8 8 7 5 5 5 4 5 7 7 7 7 7 6 6 7 6 7 5 4 4 4 3 4 3 4 4 3 4 3 2 2 7 8 4 5 7 10
13 14 13 13 4 6 7 5 5 5 5 5 5 5 8 9 10 7 5 5 5 4 5 6 5 4 4 5 4 4 3 3 4 4 4 3 2 2 4 5 8 4 5
13 13 14 13 12 5 2 2 2 5 4 4 4 4 6 8 8 8 6 5 5 4 4 5 2 4 3 3 4 3 3 3 4 3 4 4 4 3 2 2 5 5 3
15 14 13 12 15 9 5 4 4 4 2 1 3 3 6 6 7 7 5 6 5 5 4 3 4 1 3 4 3 3 3 3 3 3 4 3 3 3 3 3 0 2 3
16 17 16 15 14 10 5 4 4 3 3 3 2 3 3 4 6 6 4 6 6 8 8 6 4 5 2 3 4 2 2 2 4 4 4 5 5 5 4 3 2 2 2
14 14 16 15 15 11 7 4 4 3 2 3 4 5 5 2 4 5 5 5 6 5 6 7 6 3 3 6 5 3 2 4 3 4 4 4 6 4 5 6 5 4 2
15 13 14 14 14 14 12 8 6 4 4 5 5 4 5 5 1 3 5 4 4 6 7 8 6 8 6 6 6 6 3 6 2 1 5 4 5 4 5 5 6 6 5
12 11 12 14 15 14 14 10 10 5 6 4 4 4 5 8 5 3 2 3 5 4 5 6 6 6 5 6 2 7 1 4 4 1 2 4 5 6 6 5 5 6 6
7 9 9 12 14 14 15 13 9 10 5 4 7 10 11 10 8 7 3 3 3 4 5 6 5 6 4 5 6 2 2 1 1 3 4 4 2 5 5 5 5 5 6
8 8 9 11 12 13 13 14 14 13 11 10 10 9 8 7 7 11 11 7 5 3 5 5 7 8 9 6 5 5 5 5 5 4 2 4 4 4 4 5 6 6 5
Wind_Direction
190 161 163 162 161 157 152 150 148 145 144 143 138 135 131 124 122 112 109 99 116 107 100 92 87 81 76 68 71 67 67 66 33 37 89 85 77 70 69 63 61 51 58
147 162 163 166 164 161 157 152 152 153 151 151 149 144 137 135 134 133 143 138 118 111 104 97 85 83 80 67 64 64 56 47 38 29 38 101 97 81 72 63 65 66 56
151 164 161 167 167 164 161 158 157 160 162 161 157 153 147 146 149 150 134 124 113 108 100 97 92 88 80 72 59 55 44 30 24 14 329 307 111 102 94 76 69 70 68
155 160 168 168 170 168 166 163 164 166 172 173 168 166 156 146 140 154 137 118 116 113 109 106 107 102 94 77 67 51 32 9 1 355 56 27 96 83 105 97 71 82 71
148 158 162 166 171 171 169 169 169 172 179 177 169 164 158 150 142 118 118 119 118 119 116 120 119 112 97 88 77 63 54 15 7 22 52 62 45 73 57 87 104 81 79
151 158 157 165 174 176 173 172 172 176 184 182 175 177 175 163 165 165 165 109 131 132 131 137 127 123 118 103 85 77 67 27 70 50 58 47 49 74 75 56 69 93 99
156 163 163 169 176 178 177 179 178 184 190 186 180 178 181 176 139 169 191 184 169 138 148 144 134 131 114 101 87 75 62 42 64 83 71 49 49 63 73 53 65 69 83
166 156 170 176 177 179 178 183 182 189 195 203 192 184 184 161 159 166 186 197 190 183 166 153 142 131 131 109 94 71 42 39 64 86 73 51 46 80 73 53 65 74 79
176 153 167 177 184 182 187 185 186 190 195 202 207 195 185 167 167 162 171 201 188 179 180 158 152 141 132 108 76 65 45 76 68 81 74 44 23 92 78 67 70 78 79
183 172 168 174 182 189 206 188 189 188 189 192 208 182 162 168 160 150 161 207 192 186 182 166 160 156 136 121 106 66 31 58 77 80 68 31 38 77 71 49 66 60 66
225 203 172 176 183 190 197 198 196 195 191 195 191 174 164 159 160 154 152 186 190 193 183 176 169 152 129 117 106 64 55 70 86 80 71 48 40 61 104 96 87 98 107
210 210 201 181 186 181 197 194 197 198 207 189 171 175 170 161 160 156 160 178 186 186 177 178 169 142 124 137 102 59 81 88 97 104 80 59 85 159 159 164 152 129 114
216 195 193 193 181 182 193 179 188 195 188 189 176 173 165 165 167 161 160 169 173 165 164 167 153 143 169 185 199 152 137 116 120 109 82 57 12 306 157 164 128 130 144
205 212 200 193 181 188 187 181 183 189 191 190 181 174 173 173 160 165 165 167 163 159 155 145 144 165 232 187 165 150 127 132 132 135 136 98 34 211 184 165 154 141 143
232 207 203 185 193 192 183 174 173 189 187 196 184 187 181 192 175 159 170 166 163 160 160 162 166 177 187 162 153 149 135 119 110 116 75 76 28 320 183 169 163 163 150
2 321 238 192 196 177 184 177 177 171 176 175 181 196 199 192 173 175 170 172 168 174 167 165 171 175 183 169 161 145 139 114 107 117 132 69 58 30 162 173 168 157 186
2 358 6 299 186 179 181 174 163 173 170 175 181 187 186 171 170 173 173 180 179 174 162 156 167 158 158 164 164 158 151 151 147 143 156 166 64 47 51 50 204 198 194
11 8 1 2 320 194 180 176 169 169 172 179 180 180 178 174 169 159 161 176 174 165 162 164 162 165 175 171 167 187 173 158 164 167 147 150 152 89 47 43 26 133 126
15 8 8 7 7 10 9 79 165 183 170 183 171 170 165 155 156 163 165 175 163 160 163 169 166 147 165 175 177 175 177 176 182 166 152 151 155 148 157 33 32 25 24
13 16 18 19 19 9 35 43 37 40 23 138 160 171 168 163 156 162 164 170 162 154 159 163 152 148 155 169 151 152 191 197 188 188 179 174 182 158 170 171 176 297 279
23 18 16 21 12 23 11 11 21 20 4 9 12 133 148 157 160 160 174 168 163 174 178 172 142 170 171 157 99 3 325 246 212 205 196 191 190 188 191 187 195 222 284
28 26 23 17 19 21 22 3 37 42 33 29 356 27 40 143 180 164 171 183 170 148 167 170 161 147 181 185 148 123 227 309 272 227 217 203 208 190 192 195 201 216 216
29 18 27 26 25 23 21 26 15 18 21 16 3 3 2 23 151 191 184 170 180 183 189 193 181 168 192 215 232 148 129 224 144 217 232 220 204 203 208 203 204 192 178
25 20 23 25 30 26 22 37 50 45 26 348 358 3 355 352 349 19 281 223 183 190 197 197 194 191 143 190 270 245 245 145 179 240 278 227 214 218 208 211 207 201 180
34 27 21 30 33 29 32 30 32 38 27 17 19 14 6 1 351 340 340 290 221 199 214 203 194 206 188 177 203 175 177 233 117 135 209 250 267 217 212 198 202 208 192
26 30 33 38 35 33 34 27 31 38 29 27 19 19 5 1 6 11 348 323 299 247 216 211 217 215 216 218 202 197 190 182 200 174 165 216 203 243 208 201 201 208 192